TimeAKST,TemperatureF,Dew PointF,Humidity,Sea Level PressureIn,VisibilityMPH,Wind Direction,Wind SpeedMPH,Gust SpeedMPH,PrecipitationIn,Events,Conditions,WindDirDegrees,DateUTC
12:22 AM,-18.4,-22.0,84,30.07,10.0,NNE,3.5,-,N/A,,Scattered Clouds,30,2012-12-29 09:22:00
12:53 AM,-18.0,-23.1,78,30.08,10.0,NNE,3.5,-,N/A,,Mostly Cloudy,30,2012-12-29 09:53:00
1:53 AM,-18.0,-23.1,78,30.07,7.0,NNE,3.5,-,N/A,,Overcast,30,2012-12-29 10:53:00
3:53 AM,-18.9,-23.1,81,30.06,10.0,NNE,4.6,-,N/A,,Mostly Cloudy,30,2012-12-29 12:53:00
4:04 AM,-18.4,-23.8,76,30.05,10.0,NE,5.8,-,N/A,,Scattered Clouds,40,2012-12-29 13:04:00
4:53 AM,-20.0,-25.1,78,30.04,10.0,NNE,6.9,-,N/A,,Clear,30,2012-12-29 13:53:00
5:53 AM,-20.9,-26.0,77,30.03,10.0,NNE,4.6,-,N/A,,Clear,30,2012-12-29 14:53:00
6:53 AM,-23.1,-27.0,82,30.01,10.0,NNE,4.6,-,N/A,,Clear,20,2012-12-29 15:53:00
7:53 AM,-20.9,-26.0,77,29.98,10.0,NNE,5.8,-,N/A,,Clear,30,2012-12-29 16:53:00
8:53 AM,-22.0,-26.0,82,29.98,10.0,NNE,5.8,-,N/A,,Clear,20,2012-12-29 17:53:00
9:53 AM,-20.9,-26.0,77,29.98,10.0,NNE,5.8,-,N/A,,Clear,20,2012-12-29 18:53:00
10:53 AM,-20.9,-26.0,77,29.97,10.0,NNE,6.9,-,N/A,,Clear,20,2012-12-29 19:53:00
11:53 AM,-20.9,-25.1,81,29.96,10.0,North,8.1,-,N/A,,Clear,10,2012-12-29 20:53:00
12:53 PM,-20.9,-25.1,81,29.97,10.0,NNE,5.8,-,N/A,,Clear,20,2012-12-29 21:53:00
1:53 PM,-20.9,-25.1,81,29.98,10.0,NNE,4.6,-,N/A,,Clear,30,2012-12-29 22:53:00
2:53 PM,-20.9,-26.0,77,29.96,10.0,North,8.1,-,N/A,,Clear,10,2012-12-29 23:53:00
3:53 PM,-20.0,-24.0,82,29.96,10.0,NNE,6.9,-,N/A,,Clear,20,2012-12-30 00:53:00
4:53 PM,-20.9,-25.1,81,29.96,10.0,NNE,6.9,-,N/A,,Clear,20,2012-12-30 01:53:00
5:00 PM,-20.2,-25.6,76,29.95,10.0,NNE,6.9,-,N/A,,Partly Cloudy,20,2012-12-30 02:00:00
5:16 PM,-20.2,-25.6,76,29.96,8.0,NNE,5.8,-,N/A,,Mostly Cloudy,20,2012-12-30 02:16:00
5:51 PM,-20.2,-27.4,69,29.97,7.0,NNE,4.6,-,N/A,,Scattered Clouds,20,2012-12-30 02:51:00
5:53 PM,-20.9,-27.0,73,29.98,7.0,NNE,4.6,-,N/A,,Scattered Clouds,20,2012-12-30 02:53:00
6:01 PM,-20.2,-25.6,76,29.97,9.0,NNE,5.8,-,N/A,,Mostly Cloudy,20,2012-12-30 03:01:00
6:53 PM,-20.0,-25.1,78,29.98,10.0,NE,4.6,-,N/A,,Mostly Cloudy,40,2012-12-30 03:53:00
7:21 PM,-20.2,-25.6,76,29.96,10.0,NNE,5.8,-,N/A,,Scattered Clouds,20,2012-12-30 04:21:00
7:53 PM,-22.0,-27.0,77,29.96,10.0,NNE,6.9,-,N/A,,Clear,20,2012-12-30 04:53:00
8:53 PM,-20.0,-25.1,78,29.99,10.0,NNE,5.8,-,N/A,,Clear,30,2012-12-30 05:53:00
9:02 PM,-20.2,-23.8,83,29.98,10.0,NNE,5.8,-,N/A,,Partly Cloudy,30,2012-12-30 06:02:00
9:19 PM,-20.2,-25.6,76,29.98,10.0,NE,4.6,-,N/A,,Mostly Cloudy,40,2012-12-30 06:19:00
9:44 PM,-20.2,-25.6,76,29.98,10.0,NE,4.6,-,N/A,,Scattered Clouds,50,2012-12-30 06:44:00
9:53 PM,-23.1,-27.9,78,29.99,10.0,ENE,3.5,-,N/A,,Partly Cloudy,60,2012-12-30 06:53:00
10:53 PM,-22.0,-26.0,82,29.99,10.0,NNE,4.6,-,N/A,,Scattered Clouds,20,2012-12-30 07:53:00
11:00 PM,-22.0,-25.6,83,29.99,10.0,NNE,3.5,-,N/A,,Mostly Cloudy,30,2012-12-30 08:00:00
11:53 PM,-20.9,-26.0,77,29.99,10.0,NNE,5.8,-,N/A,,Mostly Cloudy,20,2012-12-30 08:53:00